Date Time,Air Temp,Sky Temp,Clarity,Light Level,Rain Sensor,Readings
2009-11-25 00:00:03,19.2,5.0,14.2,0.0,11.9,111
2009-11-25 00:05:03,19.0,4.5,14.5,0.0,14.7,112
2009-11-25 00:10:03,18.9,5.7,13.1,0.0,11.3,111
2009-11-25 00:15:03,19.0,5.7,13.3,0.0,11.1,112
2009-11-25 00:20:03,19.2,6.0,13.2,0.0,11.5,111
2009-11-25 00:25:03,19.3,5.3,14.0,0.0,12.8,112
2009-11-25 00:30:03,19.2,4.6,14.6,0.0,17.9,111
2009-11-25 00:35:03,18.9,5.3,13.6,0.0,19.7,112
2009-11-25 00:40:03,18.8,4.9,13.9,0.0,21.5,111
2009-11-25 00:45:03,18.7,5.5,13.2,0.0,17.4,112
2009-11-25 00:50:03,18.7,6.1,12.6,0.0,14.8,112
2009-11-25 00:55:03,18.9,6.0,12.8,0.0,14.4,111
2009-11-25 01:00:03,19.1,5.9,13.2,0.0,14.6,111
2009-11-25 01:05:03,19.2,5.7,13.5,0.0,14.9,112
2009-11-25 01:10:03,19.3,6.0,13.3,0.0,15.0,111
2009-11-25 01:15:03,19.4,4.7,14.7,0.0,19.6,112
2009-11-25 01:20:03,19.2,5.5,13.7,0.0,18.1,111
2009-11-25 01:25:03,18.9,6.8,12.1,0.0,19.5,112
2009-11-25 01:30:03,18.8,7.1,11.7,0.0,14.8,111
2009-11-25 01:35:03,18.5,4.6,13.9,0.0,23.0,112
2009-11-25 01:40:03,18.3,6.5,11.8,0.0,12.7,111
2009-11-25 01:45:03,18.5,7.9,10.6,0.0,12.5,112
2009-11-25 01:50:03,18.6,5.4,13.3,0.0,9.0,111
2009-11-25 01:55:03,18.6,4.4,14.2,0.0,11.2,112
2009-11-25 02:00:03,18.5,6.0,12.5,0.0,19.1,112
2009-11-25 02:05:03,18.3,7.7,10.6,0.0,19.8,111
2009-11-25 02:10:03,18.2,7.5,10.7,0.0,18.8,112
2009-11-25 02:15:03,18.1,6.0,12.1,0.0,19.3,111
2009-11-25 02:20:03,18.3,5.5,12.7,0.0,16.1,112
2009-11-25 02:25:03,18.3,6.7,11.6,0.0,23.2,112
2009-11-25 02:30:03,18.2,6.5,11.7,0.0,22.5,111
2009-11-25 02:35:03,18.2,7.2,11.1,0.0,24.9,112
2009-11-25 02:40:03,17.9,4.8,13.1,0.0,25.6,111
2009-11-25 02:45:03,18.5,1.5,17.0,0.0,9.2,111
2009-11-25 02:50:03,18.2,1.8,16.4,0.0,8.2,111
2009-11-25 02:55:03,18.0,1.2,16.8,0.0,3.5,112
2009-11-25 03:00:03,17.7,2.2,15.6,0.0,7.1,111
2009-11-25 03:05:03,17.5,4.2,13.4,0.0,23.0,111
2009-11-25 03:10:03,17.4,2.8,14.6,0.0,17.5,111
2009-11-25 03:15:03,17.2,2.8,14.3,0.0,20.8,112
2009-11-25 03:20:03,17.2,4.7,12.5,0.0,19.1,111
2009-11-25 03:25:03,16.8,2.8,14.0,0.0,18.2,111
2009-11-25 03:30:03,16.8,1.5,15.3,0.0,12.1,112
2009-11-25 03:35:03,16.9,2.7,14.2,0.0,9.4,111
2009-11-25 03:40:03,16.9,1.2,15.7,0.0,11.0,111
2009-11-25 03:45:03,17.0,2.2,14.8,0.0,14.1,111
2009-11-25 03:50:03,17.0,0.1,16.9,0.0,6.6,112
2009-11-25 03:55:03,16.9,-0.8,17.7,0.0,4.5,111
2009-11-25 04:00:03,16.8,0.4,16.4,0.0,8.9,112
2009-11-25 04:05:03,16.8,2.0,14.8,0.0,12.5,112
2009-11-25 04:10:03,16.8,-1.5,18.3,0.1,2.6,112
2009-11-25 04:15:03,16.8,-1.0,17.8,0.0,2.3,111
2009-11-25 04:20:03,16.8,0.1,16.7,0.0,2.3,112
2009-11-25 04:25:03,16.9,1.3,15.6,0.0,2.7,111
2009-11-25 04:30:03,16.8,2.6,14.2,0.0,7.4,111
2009-11-25 04:35:03,16.6,1.9,14.7,0.0,22.0,112
2009-11-25 04:40:03,16.5,-0.2,16.8,0.0,7.7,112
2009-11-25 04:45:03,16.5,-1.8,18.3,0.0,2.5,111
2009-11-25 04:50:03,18.2,-4.0,22.2,0.0,2.3,112
2009-11-25 04:55:03,20.3,-1.4,21.6,0.0,2.3,111
2009-11-25 05:00:03,20.9,-0.9,21.8,0.0,2.3,112
2009-11-25 05:05:03,21.1,-2.5,23.6,0.0,2.3,112
2009-11-25 05:10:03,21.2,-3.4,24.6,0.0,2.3,111
2009-11-25 05:15:03,21.3,-4.0,25.3,0.0,2.3,112
2009-11-25 05:20:03,21.3,-4.7,26.1,0.0,2.3,112
2009-11-25 05:25:03,21.4,-4.4,25.8,0.0,2.3,112
2009-11-25 05:30:03,21.4,-4.3,25.7,0.0,2.3,112
2009-11-25 05:35:03,21.0,-4.8,25.8,0.0,2.3,111
2009-11-25 05:40:03,21.5,-5.0,26.5,0.0,2.3,112
2009-11-25 05:45:03,21.5,-7.5,29.0,0.0,2.3,111
2009-11-25 05:50:03,21.4,-9.6,31.0,0.0,2.3,112
2009-11-25 05:55:03,21.4,-11.1,32.5,0.0,2.3,111
2009-11-25 06:00:03,21.3,-15.8,37.1,0.0,2.3,112
2009-11-25 06:05:03,21.2,-21.3,42.5,0.0,2.3,111
2009-11-25 06:10:03,21.1,-22.7,43.7,0.0,2.3,112
2009-11-25 06:15:03,21.0,-22.8,43.8,0.0,2.3,111
2009-11-25 06:20:03,20.9,-23.3,44.2,0.0,2.3,112
2009-11-25 06:25:03,20.8,-23.4,44.2,0.0,2.3,111
2009-11-25 06:30:03,20.8,-23.4,44.2,0.0,2.3,112
2009-11-25 06:35:03,20.8,-23.5,44.3,0.1,2.3,111
2009-11-25 06:40:03,20.7,-23.7,44.4,0.3,2.3,111
2009-11-25 06:45:03,20.6,-23.6,44.2,0.7,2.3,112
2009-11-25 06:50:03,20.5,-23.8,44.4,1.4,2.3,111
2009-11-25 06:55:03,20.6,-23.8,44.3,2.8,2.3,112
2009-11-25 07:00:03,20.2,-23.7,43.9,5.2,2.3,111
2009-11-25 07:05:03,20.6,-23.8,44.4,8.8,2.3,112
2009-11-25 07:10:03,20.5,-23.8,44.3,13.6,2.3,111
2009-11-25 07:15:03,20.6,-23.4,44.0,19.0,2.3,111
2009-11-25 07:20:00,20.4,-23.6,44.1,24.8,2.3,42
2009-11-25 07:25:00,20.4,-23.6,44.0,26.9,2.3,112
2009-11-25 07:30:00,20.4,-22.9,43.3,28.9,2.3,111
2009-11-25 07:35:00,20.4,-23.1,43.5,30.2,2.3,112
2009-11-25 07:40:00,20.4,-23.1,43.5,30.9,2.3,111
2009-11-25 07:45:00,20.3,-22.9,43.3,31.3,2.3,112
2009-11-25 07:50:00,20.3,-22.6,42.9,31.6,2.3,111
2009-11-25 07:55:00,20.3,-14.1,34.5,31.9,2.3,112
2009-11-25 08:00:00,20.5,-18.6,39.0,32.0,2.3,111
2009-11-25 08:05:00,20.5,-22.0,42.5,32.0,2.3,112
2009-11-25 08:10:00,20.5,-21.9,42.4,32.1,2.3,111
2009-11-25 08:15:00,20.5,-19.8,40.3,32.1,2.3,112
2009-11-25 08:20:00,20.6,-3.5,24.2,32.1,2.3,111
2009-11-25 08:25:00,20.9,-9.6,30.5,32.2,2.3,112
2009-11-25 08:30:00,21.1,-15.6,36.6,32.2,2.3,111
2009-11-25 08:35:00,21.1,-9.6,30.7,32.2,2.3,111
2009-11-25 08:40:00,21.1,-9.4,30.5,32.3,2.3,112
2009-11-25 08:45:00,21.2,-20.9,42.1,32.3,2.3,112
2009-11-25 08:50:00,21.2,-20.8,42.0,32.3,2.3,111
2009-11-25 08:55:00,21.5,-18.8,40.3,32.4,2.3,111
2009-11-25 09:00:00,21.3,-9.8,31.1,32.4,2.3,112
2009-11-25 09:05:00,21.5,-1.1,22.7,32.3,2.3,112
2009-11-25 09:10:00,21.7,0.2,21.5,32.5,4.0,111
2009-11-25 09:15:00,20.9,0.3,20.5,32.5,3.8,111
2009-11-25 09:20:00,18.6,1.5,17.0,32.5,11.0,111
2009-11-25 09:25:00,17.3,4.3,13.0,32.3,20.1,112
2009-11-25 09:30:00,16.6,0.5,16.1,32.3,2.9,112
2009-11-25 09:35:00,18.7,-18.9,37.6,32.3,2.4,111
2009-11-25 09:40:00,20.0,-20.1,40.1,32.3,2.2,111
2009-11-25 09:45:00,20.4,-20.1,40.5,32.4,2.3,112
2009-11-25 09:50:00,20.7,-21.3,42.0,32.4,2.3,111
2009-11-25 09:55:00,20.9,-20.5,41.4,32.4,2.3,112
2009-11-25 10:00:00,21.2,-15.4,36.6,32.5,2.3,112
2009-11-25 10:05:00,21.5,-4.8,26.3,32.5,2.3,111
2009-11-25 10:10:00,21.8,-2.2,23.9,32.3,2.3,112
2009-11-25 10:15:00,20.6,-1.0,21.7,31.8,26.2,111
2009-11-25 10:20:00,17.4,-2.2,19.6,32.3,26.2,111
2009-11-25 10:25:00,17.7,-12.8,30.5,32.5,7.6,112
2009-11-25 10:30:00,19.4,-19.7,39.1,32.5,2.2,111
2009-11-25 10:35:00,20.4,-17.1,37.5,32.5,2.3,112
2009-11-25 10:40:00,20.7,-8.5,29.2,32.4,2.3,111
2009-11-25 10:45:00,20.7,-19.7,40.4,32.5,2.3,111
2009-11-25 10:50:00,21.3,-22.1,43.4,32.6,2.3,112
2009-11-25 10:55:00,22.1,-20.7,42.8,32.6,2.2,111
2009-11-25 11:00:00,22.3,-18.2,40.5,32.5,2.1,112
2009-11-25 11:05:00,21.9,-13.9,35.8,32.5,2.2,111
2009-11-25 11:10:00,22.1,-5.0,27.0,32.6,2.2,112
2009-11-25 11:15:00,22.5,-3.7,26.2,32.5,2.3,112
2009-11-25 11:20:00,22.8,-12.8,35.6,32.5,2.3,111
2009-11-25 11:25:00,22.8,-6.4,29.2,32.4,2.3,112
2009-11-25 11:30:00,22.4,-1.4,23.9,32.4,2.3,111
2009-11-25 11:35:00,22.3,-3.8,26.1,32.5,2.6,112
2009-11-25 11:40:00,23.0,-12.2,35.1,32.6,2.3,111
2009-11-25 11:45:00,23.8,-18.9,42.7,32.6,2.3,112
2009-11-25 11:50:00,24.1,-18.8,42.9,32.6,2.3,111
2009-11-25 11:55:00,23.9,-13.5,37.4,32.6,2.3,112
2009-11-25 12:00:00,23.7,-10.3,34.1,32.6,2.3,111
2009-11-25 12:05:00,23.7,-9.8,33.6,32.6,2.3,112
2009-11-25 12:10:00,24.3,-21.4,45.7,32.6,2.3,112
2009-11-25 12:15:00,24.4,-21.4,45.8,32.6,2.3,111
2009-11-25 12:20:00,24.5,-19.2,43.6,32.6,2.3,112
2009-11-25 12:25:00,24.6,-14.4,39.0,32.6,2.3,111
2009-11-25 12:30:00,24.6,-10.8,35.4,32.6,2.3,111
2009-11-25 12:35:00,24.1,-16.0,40.1,32.6,2.3,112
2009-11-25 12:40:00,24.2,-13.4,37.6,32.6,2.3,111
2009-11-25 12:45:00,23.9,-2.8,26.6,32.5,2.3,112
2009-11-25 12:50:00,23.2,-1.8,24.9,32.5,13.5,111
2009-11-25 12:55:00,21.6,-5.7,27.3,32.5,15.3,111
2009-11-25 13:00:00,21.3,-19.7,41.0,32.5,2.3,112
2009-11-25 13:05:00,21.7,-22.5,44.2,32.5,2.3,111
2009-11-25 13:10:00,21.8,-18.9,40.7,32.5,2.3,112
2009-11-25 13:15:00,22.1,-17.2,39.3,32.6,2.3,111
2009-11-25 13:20:00,22.5,-13.0,35.5,32.5,2.4,112
2009-11-25 13:25:00,22.5,-4.5,27.1,32.4,2.3,111
2009-11-25 13:30:00,22.3,-1.0,23.4,32.3,12.9,112
2009-11-25 13:35:00,19.3,0.7,18.6,32.0,28.3,111
2009-11-25 13:40:00,16.8,-1.1,17.9,32.2,17.8,112
2009-11-25 13:45:00,16.6,-6.9,23.5,32.3,7.5,111
2009-11-25 13:50:00,18.9,-7.9,26.8,32.2,2.2,112
2009-11-25 13:55:00,19.6,-8.0,27.7,32.3,3.1,111
2009-11-25 14:00:00,19.8,-6.6,26.4,32.4,2.8,112
2009-11-25 14:05:00,20.0,-11.6,31.6,32.4,2.3,112
2009-11-25 14:10:00,20.1,-6.4,26.6,32.3,2.3,111
2009-11-25 14:15:00,20.4,-4.8,25.1,32.4,2.7,112
2009-11-25 14:20:00,20.7,-7.8,28.5,32.6,2.3,112
2009-11-25 14:25:00,21.7,-14.3,35.9,32.6,2.2,111
2009-11-25 14:30:00,22.0,-18.9,40.9,32.5,2.3,111
2009-11-25 14:35:00,21.7,-16.5,38.3,32.4,2.2,112
2009-11-25 14:40:00,21.4,-10.2,31.6,32.5,2.2,111
2009-11-25 14:45:00,21.9,-10.8,32.7,32.4,2.3,112
2009-11-25 14:50:00,21.7,-5.9,27.6,32.4,2.3,112
2009-11-25 14:55:00,21.5,-11.3,32.8,32.4,2.2,111
2009-11-25 15:00:00,21.5,-3.9,25.3,32.3,2.1,112
2009-11-25 15:05:00,21.5,-11.7,33.1,32.4,2.2,112
2009-11-25 15:10:00,21.5,-9.4,31.0,32.5,2.2,111
2009-11-25 15:15:00,21.8,-12.1,33.9,32.5,2.3,112
2009-11-25 15:20:00,21.9,-17.7,39.6,32.4,2.3,112
2009-11-25 15:25:00,20.8,-19.4,40.2,32.3,2.2,111
2009-11-25 15:30:00,21.5,-17.9,39.4,32.1,2.2,112
2009-11-25 15:35:00,21.0,-17.1,38.1,31.9,2.3,112
2009-11-25 15:40:00,21.3,-8.5,29.8,31.8,2.3,111
2009-11-25 15:45:00,21.3,-6.1,27.4,31.6,2.3,112
2009-11-25 15:50:00,21.3,-5.1,26.3,31.5,2.3,112
2009-11-25 15:55:00,21.2,-5.3,26.5,31.4,2.5,111
2009-11-25 16:00:00,21.0,-10.2,31.2,31.2,2.3,112
2009-11-25 16:05:00,20.9,-10.2,31.1,30.9,2.3,112
2009-11-25 16:10:00,20.8,-11.7,32.5,30.7,2.3,112
2009-11-25 16:15:00,20.8,-14.7,35.5,30.4,2.3,111
2009-11-25 16:20:00,20.7,-17.6,38.3,29.7,2.3,112
2009-11-25 16:25:00,20.7,-20.2,41.0,27.9,2.3,111
2009-11-25 16:30:00,20.6,-19.7,40.3,23.9,2.3,112
2009-11-25 16:35:00,20.6,-15.3,36.0,18.7,2.3,111
2009-11-25 16:40:00,20.6,-15.0,35.5,13.0,2.4,112
2009-11-25 16:45:00,20.6,-8.6,29.1,7.7,2.4,112
2009-11-25 16:50:00,20.6,-13.0,33.6,4.6,2.4,111
2009-11-25 16:55:00,20.6,-13.9,34.4,2.7,2.4,112
2009-11-25 17:00:00,20.6,-14.2,34.7,1.6,2.4,111
2009-11-25 17:05:00,20.2,-16.0,36.2,1.0,2.4,112
2009-11-25 17:10:00,20.6,-17.8,38.4,0.6,2.4,111
2009-11-25 17:15:00,20.3,-17.5,37.8,0.4,2.4,111
2009-11-25 17:20:00,20.6,-18.3,38.9,0.3,2.4,112
2009-11-25 17:25:00,20.6,-18.9,39.5,0.2,2.4,112
2009-11-25 17:30:00,20.6,-20.7,41.4,0.1,2.4,111
2009-11-25 17:35:00,20.6,-22.3,42.9,0.1,2.4,111
2009-11-25 17:40:00,20.5,-23.0,43.5,0.1,2.4,112
2009-11-25 17:45:00,20.5,-23.0,43.5,0.1,2.4,112
2009-11-25 17:50:00,20.5,-23.4,43.9,0.1,2.4,111
2009-11-25 17:55:00,20.6,-23.3,43.9,0.1,2.4,112
2009-11-25 18:00:00,20.6,-23.8,44.4,0.1,2.4,111
2009-11-25 18:05:00,20.5,-23.3,43.8,0.1,2.4,111
2009-11-25 18:10:00,20.5,-23.2,43.7,0.1,2.3,111
2009-11-25 18:15:00,20.5,-23.2,43.7,0.1,2.3,112
2009-11-25 18:20:00,20.4,-22.7,43.2,0.1,2.3,112
2009-11-25 18:25:00,20.1,-22.9,43.0,0.1,2.3,111
2009-11-25 18:30:00,19.8,-23.1,42.9,0.1,2.3,112
2009-11-25 18:35:00,19.7,-22.9,42.6,0.1,2.3,112
2009-11-25 18:40:00,19.6,-22.8,42.4,0.1,2.3,111
2009-11-25 18:45:00,19.6,-23.1,42.6,0.1,2.3,112
2009-11-25 18:50:00,19.6,-22.9,42.5,0.1,2.3,111
2009-11-25 18:55:00,19.5,-23.1,42.6,0.1,2.3,112
2009-11-25 19:00:00,19.5,-23.2,42.7,0.1,2.3,111
2009-11-25 19:05:00,19.7,-23.4,43.1,0.2,2.3,111
2009-11-25 19:10:00,20.0,-23.5,43.5,0.2,2.3,112
2009-11-25 19:15:00,20.1,-23.4,43.6,0.2,2.3,112
2009-11-25 19:20:00,20.2,-23.5,43.7,0.2,2.3,111
2009-11-25 19:25:00,20.3,-23.1,43.4,0.2,2.3,111
2009-11-25 19:30:00,20.2,-23.0,43.2,0.2,2.3,112
2009-11-25 19:35:00,20.2,-23.2,43.4,0.2,2.4,111
2009-11-25 19:40:00,20.1,-23.0,43.2,0.2,2.4,111
2009-11-25 19:45:00,20.2,-22.7,42.9,0.2,2.4,112
2009-11-25 19:50:00,20.3,-22.9,43.1,0.2,2.4,111
2009-11-25 19:55:00,20.3,-22.5,42.8,0.2,2.4,112
2009-11-25 20:00:00,20.4,-22.8,43.2,0.2,2.3,111
2009-11-25 20:05:00,20.4,-22.7,43.1,0.2,2.3,112
2009-11-25 20:10:00,20.1,-22.9,42.9,0.2,2.3,111
2009-11-25 20:15:00,20.4,-22.6,43.0,0.2,2.4,112
2009-11-25 20:20:00,20.4,-22.4,42.8,0.2,2.4,112
2009-11-25 20:25:00,20.3,-22.5,42.8,0.2,2.4,112
2009-11-25 20:30:00,20.3,-22.8,43.1,0.2,2.4,111
2009-11-25 20:35:00,20.3,-22.6,43.0,0.2,2.4,112
2009-11-25 20:40:00,20.3,-22.0,42.3,0.2,2.4,111
2009-11-25 20:45:00,20.3,-21.9,42.2,0.2,2.4,111
2009-11-25 20:50:00,20.3,-21.2,41.5,0.2,2.4,112
2009-11-25 20:55:00,20.3,-21.5,41.8,0.2,2.4,112
2009-11-25 21:00:00,20.3,-21.8,42.2,0.2,2.4,111
2009-11-25 21:05:00,20.4,-21.9,42.3,0.2,2.4,112
2009-11-25 21:10:00,20.5,-22.2,42.7,0.2,2.4,112
2009-11-25 21:15:00,20.4,-22.3,42.7,0.2,2.4,111
2009-11-25 21:20:00,20.5,-22.1,42.6,0.2,2.4,111
2009-11-25 21:25:00,20.5,-21.7,42.2,0.2,2.4,112
2009-11-25 21:30:00,20.5,-20.5,41.0,0.0,2.4,112
2009-11-25 21:35:00,20.2,-17.0,37.2,0.0,2.4,112
2009-11-25 21:40:00,20.6,-4.6,25.2,0.1,2.4,112
2009-11-25 21:45:00,18.8,2.0,16.8,0.0,2.3,111
2009-11-25 21:50:00,17.0,-0.2,17.2,0.1,2.5,112
2009-11-25 21:55:00,16.8,-2.1,18.9,0.1,2.4,111
2009-11-25 22:00:00,19.3,-11.6,30.9,0.1,2.3,112
2009-11-25 22:05:00,20.6,-9.1,29.6,0.1,2.4,111
2009-11-25 22:10:00,20.9,-7.1,28.1,0.2,2.3,112
2009-11-25 22:15:00,21.1,-17.3,38.4,0.1,2.3,111
2009-11-25 22:20:00,21.1,-9.2,30.3,0.0,2.3,112
2009-11-25 22:25:00,21.1,-0.7,21.8,0.1,2.3,111
2009-11-25 22:30:00,21.3,-1.5,22.7,0.1,7.2,112
2009-11-25 22:35:00,21.1,-3.3,24.4,0.1,5.1,112
2009-11-25 22:40:00,21.1,-7.5,28.6,0.1,2.4,111
2009-11-25 22:45:00,20.7,-5.9,26.6,0.1,2.4,112
2009-11-25 22:50:00,21.0,-3.4,24.4,0.1,2.5,111
2009-11-25 22:55:00,20.1,0.7,19.4,0.0,8.3,111
2009-11-25 23:00:00,17.6,-0.1,17.7,0.1,18.1,112
2009-11-25 23:05:00,16.6,-0.8,17.5,0.1,2.8,111
2009-11-25 23:10:00,16.4,-1.9,18.3,0.1,2.4,112
2009-11-25 23:15:00,16.2,-2.2,18.4,0.1,3.5,112
2009-11-25 23:20:00,16.3,-2.5,18.8,0.1,3.0,111
2009-11-25 23:25:00,16.2,-2.0,18.2,0.1,2.6,112
2009-11-25 23:30:00,16.1,-1.2,17.4,0.1,3.0,112
2009-11-25 23:35:00,16.2,-0.3,16.5,0.1,6.5,112
2009-11-25 23:40:00,16.2,0.4,15.7,0.1,14.0,111
2009-11-25 23:45:00,16.1,0.6,15.4,0.1,7.8,111
2009-11-25 23:50:00,15.8,-0.2,16.0,0.0,7.6,112
2009-11-25 23:55:00,15.7,0.8,14.9,0.0,24.2,112
